{"data":{"norad_id":39265,"epoch":"2026-09-20T03:40:06.074976Z","epoch_age_seconds":44233,"freshness":"FRESH","line1":"1 39265U 13055A   26263.15284809  .00031489 -71199-6  31045-3 0  9990","line2":"2 39265  80.9123 310.8143 0268417 100.6970 262.4610 15.31928533682176","mean_motion":15.31928533,"eccentricity":0.0268417,"inclination_deg":80.9123,"raan_deg":310.8143,"arg_perigee_deg":100.697,"mean_anomaly_deg":262.461,"bstar":0.00031045,"rev_number":68217,"period_min":93.999163079757,"perigee_km":286.24161679341,"apogee_km":653.87605307861,"semimajor_km":6848.195834936,"source":"CELESTRAK","updated_at":"2026-09-20T09:00:47.146251Z"}}